This demonstration page uses our WeatherBlox Daily Observations layout. Learn more.

Left ArrowRight Arrow

39.51506, -84.39828

Hourly Observations for March 16, 2016

Temp ( °F °C ) Dew Point ( °F °C ) Humidity (%) Winds ( mph kmh ) Pressure ( in mb ) Visibility ( mi km ) Precip ( " mm )
12:15 am 00:15 Clear 63 17.3 51 10.6 65 65 W 5 7 29.59 1002 10 16 0.00 0.00
12:35 am 00:35 Clear 69 20.3 53 11.4 57 57 ESE 5 7 29.59 1002 10 16 0.00 0.00
12:55 am 00:55 Clear 69 20.8 53 11.7 56 56 SSE 5 7 29.59 1002 10 16 0.00 0.00
1:15 am 01:15 Clear 69 20.6 53 11.4 56 56 Calm 29.56 1001 10 16 0.00 0.00
1:35 am 01:35 Clear 69 20.3 52 11 55 55 S 8 13 29.56 1001 10 16 0.00 0.00
1:55 am 01:55 Clear 67 19.5 51 10.6 57 57 S 6 9 29.56 1001 10 16 0.00 0.00
2:15 am 02:15 Clear 66 19 50 10.2 57 57 S 5 7 29.56 1001 10 16 0.00 0.00
2:35 am 02:35 Clear 63 17.1 50 9.9 63 63 WSW 7 11 29.56 1001 10 16 0.00 0.00
2:55 am 02:55 Mostly Cloudy 69 20.8 53 11.6 56 56 SSW 9 15 29.56 1001 10 16 0.00 0.00
3:15 am 03:15 Cloudy 69 20.8 52 11.3 55 55 SW 7 11 29.56 1001 10 16 0.00 0.00
3:35 am 03:35 Partly Cloudy 67 19.5 52 11.3 59 59 SSW 8 13 29.56 1001 10 16 0.00 0.00
3:55 am 03:55 Clear 64 18 51 10.5 62 62 SW 7 11 29.56 1001 10 16 0.00 0.00
4:15 am 04:15 Partly Cloudy 66 18.9 53 11.4 62 62 WSW 6 9 29.56 1001 10 16 0.00 0.00
4:35 am 04:35 Partly Cloudy 64 17.8 52 11 65 65 SW 6 9 29.56 1001 10 16 0.00 0.00
4:55 am 04:55 Partly Cloudy 69 20.8 55 13 61 61 W 16 26 29.59 1002 10 16 0.00 0.00
5:15 am 05:15 Partly Cloudy 69 20.8 56 13.3 62 62 W 17 28 29.59 1002 10 16 0.00 0.00
5:35 am 05:35 Cloudy 67 19.5 53 11.5 60 60 W 13 20 29.62 1003 10 16 0.00 0.00
5:55 am 05:55 Cloudy 65 18.1 51 10.7 62 62 W 14 22 29.62 1003 10 16 0.00 0.00
6:15 am 06:15 Partly Cloudy 63 17.3 51 10.6 65 65 WSW 8 13 29.62 1003 10 16 0.00 0.00
6:35 am 06:35 Clear 62 16.6 51 10.5 67 67 W 9 15 29.65 1004 10 16 0.00 0.00
6:55 am 06:55 Partly Cloudy 62 16.6 50 10.1 66 66 WSW 14 22 29.65 1004 10 16 0.00 0.00
7:15 am 07:15 Cloudy 62 16.6 48 9.1 61 61 W 18 30 29.68 1005 10 16 0.00 0.00
7:35 am 07:35 Mostly Cloudy 61 16 47 8.5 61 61 W 18 30 29.68 1005 10 16 0.00 0.00
7:55 am 07:55 Mostly Cloudy 60 15.5 45 7.4 59 59 W 17 28 29.71 1006 10 16 0.00 0.00
8:15 am 08:15 Partly Cloudy 60 15.3 42 5.4 52 52 W 16 26 29.74 1007 10 16 0.00 0.00
8:35 am 08:35 Sunny 57 13.9 39 4 52 52 W 14 22 29.74 1007 10 16 0.00 0.00
8:55 am 08:55 Sunny 60 15.3 41 5.1 51 51 W 10 17 29.74 1007 10 16 0.00 0.00
9:15 am 09:15 Sunny 60 15.3 41 5 50 50 WSW 15 24 29.77 1008 10 16 0.00 0.00
9:35 am 09:35 Sunny 60 15.3 40 4.4 48 48 WSW 18 30 29.77 1008 10 16 0.00 0.00
9:55 am 09:55 Sunny 60 15.3 38 3.6 46 46 WSW 20 31 29.77 1008 10 16 0.00 0.00
10:15 am 10:15 Partly Cloudy 60 15.7 38 3.5 44 44 W 18 30 29.77 1008 10 16 0.00 0.00
10:35 am 10:35 Partly Cloudy 60 15.3 39 4 47 47 W 18 30 29.77 1008 10 16 0.00 0.00
10:55 am 10:55 Partly Cloudy 61 16 40 4.3 46 46 WSW 24 39 29.80 1009 10 16 0.00 0.00
11:15 am 11:15 Partly Cloudy 60 15.3 37 3 44 44 W 26 43 29.80 1009 10 16 0.00 0.00
11:35 am 11:35 Partly Cloudy 60 15.3 35 1.8 40 40 WSW 22 35 29.80 1009 10 16 0.00 0.00
11:55 am 11:55 Partly Cloudy 62 16.6 37 2.9 40 40 WSW 17 28 29.83 1010 10 16 0.00 0.00
12:15 pm 12:15 Partly Cloudy 61 16.2 37 2.8 41 41 WSW 21 33 29.83 1010 10 16 0.00 0.00
12:35 pm 12:35 Partly Cloudy 62 16.4 37 2.5 39 39 W 21 33 29.83 1010 10 16 0.00 0.00
12:55 pm 12:55 Mostly Cloudy 63 17 36 2.1 37 37 WSW 25 41 29.83 1010 10 16 0.00 0.00
1:15 pm 13:15 Partly Cloudy 62 16.8 33 0.6 34 34 WSW 18 30 29.83 1010 10 16 0.00 0.00
1:35 pm 13:35 Partly Cloudy 62 16.8 31 -0.4 31 31 WSW 24 39 29.83 1010 10 16 0.00 0.00
1:55 pm 13:55 Mostly Cloudy 62 16.7 31 -0.3 32 32 W 20 31 29.83 1010 10 16 0.00 0.00
2:15 pm 14:15 Partly Cloudy 63 17 32 -0.1 32 32 SW 24 39 29.83 1010 10 16 0.00 0.00
2:35 pm 14:35 Partly Cloudy 64 18 32 0 30 30 WSW 22 35 29.83 1010 10 16 0.00 0.00
2:55 pm 14:55 Partly Cloudy 62 16.8 31 -0.6 31 31 WSW 20 31 29.83 1010 10 16 0.00 0.00
3:15 pm 15:15 Partly Cloudy 67 19.3 30 -1.1 25 25 WSW 20 31 29.83 1010 10 16 0.00 0.00
3:35 pm 15:35 Partly Cloudy 63 17.3 26 -3.5 24 24 WSW 15 24 29.83 1010 10 16 0.00 0.00
3:55 pm 15:55 Partly Cloudy 63 17.4 23 -4.9 22 22 W 23 37 29.83 1010 10 16 0.00 0.00
4:15 pm 16:15 Partly Cloudy 66 19 24 -4.5 20 20 W 25 41 29.85 1011 10 16 0.00 0.00
4:35 pm 16:35 Mostly Cloudy 64 17.8 22 -5.7 20 20 WSW 24 39 29.85 1011 10 16 0.00 0.00
4:55 pm 16:55 Mostly Cloudy 65 18.4 21 -6 19 19 W 22 35 29.85 1011 10 16 0.00 0.00
5:15 pm 17:15 Mostly Cloudy 63 17.2 21 -6 20 20 WSW 20 31 29.85 1011 10 16 0.00 0.00
5:35 pm 17:35 Mostly Cloudy 62 16.8 20 -6.6 20 20 W 20 31 29.85 1011 10 16 0.00 0.00
5:55 pm 17:55 Mostly Cloudy 63 17.2 20 -6.4 19 19 WSW 20 31 29.85 1011 10 16 0.00 0.00
6:15 pm 18:15 Partly Cloudy 63 17.1 20 -6.7 19 19 W 15 24 29.88 1012 10 16 0.00 0.00
6:35 pm 18:35 Partly Cloudy 63 17 19 -7 19 19 W 15 24 29.88 1012 10 16 0.00 0.00
6:55 pm 18:55 Sunny 62 16.7 19 -7.5 18 18 WSW 14 22 29.88 1012 10 16 0.00 0.00
7:15 pm 19:15 Sunny 61 16 20 -6.5 21 21 W 13 20 29.88 1012 10 16 0.00 0.00
7:35 pm 19:35 Sunny 60 15.3 23 -5.2 24 24 W 9 15 29.88 1012 10 16 0.00 0.00
7:55 pm 19:55 Clear 59 15 26 -3.1 29 29 W 8 13 29.88 1012 10 16 0.00 0.00
8:15 pm 20:15 Clear 57 13.8 26 -3.1 31 31 WSW 7 11 29.91 1013 10 16 0.00 0.00
8:35 pm 20:35 Clear 57 13.8 29 -1.5 35 35 WSW 7 11 29.91 1013 10 16 0.00 0.00
8:55 pm 20:55 Clear 56 13.5 31 -0.5 38 38 WSW 6 9 29.91 1013 10 16 0.00 0.00
9:15 pm 21:15 Clear 55 12.5 32 0 43 43 WSW 5 7 29.91 1013 10 16 0.00 0.00
9:35 pm 21:35 Clear 55 12.5 32 -0.1 42 42 WSW 7 11 29.94 1014 10 16 0.00 0.00
9:55 pm 21:55 Clear 55 12.5 32 0 43 43 WSW 7 11 29.94 1014 10 16 0.00 0.00
10:15 pm 22:15 Clear 55 12.5 31 -0.3 42 42 WSW 7 11 29.94 1014 10 16 0.00 0.00
10:35 pm 22:35 Clear 55 12.5 32 -0.1 42 42 WSW 7 11 29.94 1014 10 16 0.00 0.00
10:55 pm 22:55 Clear 55 12.5 35 1.5 47 47 SW 8 13 29.94 1014 10 16 0.00 0.00
11:15 pm 23:15 Clear 55 12.5 35 1.9 49 49 SW 8 13 29.94 1014 10 16 0.00 0.00
11:35 pm 23:35 Clear 52 11 33 0.5 49 49 SW 8 13 29.94 1014 10 16 0.00 0.00
11:55 pm 23:55 Clear 49 9.7 32 0 51 51 SW 7 11 29.94 1014 10 16 0.00 0.00

Powered by AerisWeather